Location: Utrecht
(52.0907°N, 5.1214°E)
Time: 12:19:58
(UTC+02:00)

UKube-1 - Visible Passes

Search period start: 25 June 2022 00:00
Search period end: 05 July 2022 00:00
Orbit: 610 x 614 km, 98.4° (Epoch: 24 June)

Date Brightness Start Highest point End Pass type
(mag) Time Alt. Az. Time Alt. Az. Time Alt. Az.
25 Jun ? 00:00:10 10° NNE 00:04:30 80° WNW 00:08:48 10° SSW visible
25 Jun ? 01:37:36 10° NNW 01:39:43 14° NW 01:41:50 10° W visible
26 Jun ? 00:15:04 10° N 00:19:19 59° WNW 00:23:32 10° SSW visible
26 Jun ? 01:53:31 10° NW 01:54:21 10° NW 01:55:11 10° WNW visible
26 Jun ? 22:54:25 10° NE 22:58:01 25° E 23:01:35 10° SSE visible
27 Jun ? 00:30:00 10° N 00:34:06 44° WNW 00:38:10 10° SW visible
27 Jun ? 23:09:01 10° NNE 23:12:58 33° E 23:16:51 10° SSE visible
28 Jun ? 00:44:58 10° N 00:48:50 33° WNW 00:52:41 10° SW visible
28 Jun ? 23:23:42 10° NNE 23:27:51 45° E 23:31:57 10° S visible
29 Jun ? 01:00:01 10° N 01:03:33 25° WNW 01:07:05 10° WSW visible
29 Jun ? 23:38:26 10° NNE 23:42:44 63° ESE 23:46:55 10° S visible
30 Jun ? 01:15:07 10° NNW 01:18:14 20° WNW 01:21:21 10° WSW visible
30 Jun ? 23:53:14 10° NNE 23:57:34 85° ESE 00:01:52 10° SSW visible
01 Jul ? 01:30:20 10° NNW 01:32:54 16° NW 01:35:27 10° W visible
02 Jul ? 00:08:04 10° NNE 00:12:22 71° WNW 00:16:39 10° SSW visible
02 Jul ? 01:45:48 10° NNW 01:47:31 12° NW 01:49:14 10° WNW visible
02 Jul ? 22:47:39 10° NE 22:50:58 21° E 22:54:15 10° SE visible
03 Jul ? 00:22:57 10° N 00:27:09 52° WNW 00:31:19 10° SW visible
03 Jul ? 23:02:09 10° NE 23:05:54 28° E 23:09:37 10° SSE visible
04 Jul ? 00:37:53 10° N 00:41:54 39° WNW 00:45:53 10° SW visible
04 Jul ? 23:16:46 10° NNE 23:20:48 38° E 23:24:41 11° SSE visible
